Location: Voyageurs National Park
(48.5020°N, 92.9292°W)
Time: 13:22:55
(UTC-05:00)

Daily predictions for brighter satellites

Satellite Brightness Start Highest point End
(mag) Time Altitude Azimuth Time Altitude Azimuth Time Altitude Azimuth
Terra 3.4 21:50:02 10° ESE 21:53:43 23° ENE 21:57:24 10° N
RESURS DK-1 3.9 21:53:52 10° N 21:57:26 26° NE 22:00:58 10° ESE
Cosmos 1802 Rocket 4.3 21:52:35 10° N 21:58:36 52° ENE 22:04:34 10° SSE
Cosmos 1023 Rocket 4.4 21:54:31 10° SSW 21:59:38 72° ESE 22:04:45 10° NNE
In-Cosmos 22 4.3 21:56:21 10° S 22:02:03 82° E 22:07:51 10° NNE
Cosmos 2333 Rocket 3.9 21:57:23 10° NW 22:02:10 28° WSW 22:06:55 10° SSW
Cosmos 1954 Rocket 4.1 21:58:43 10° SSW 22:03:55 89° WNW 22:09:08 10° NNE
Intercosmos 25 4.5 21:59:35 10° N 22:04:01 58° E 22:11:09 10° SSE
ARGOS 3.2 21:59:08 10° SSE 22:04:32 78° ENE 22:09:59 10° NNW
Cosmos 1850 Rocket 4.2 22:01:52 10° S 22:06:50 49° ESE 22:11:51 10° NNE
Cosmos 2219 Rocket 4.3 22:03:34 10° NW 22:07:46 22° W 22:11:57 10° SSW
Cosmos 1727 Rocket 4.2 22:02:12 10° SSW 22:08:30 80° W 22:14:55 10° N
H-2A R/B 2.4 22:03:44 10° SSE 22:08:55 57° ENE 22:14:15 10° N
MetOp-A 4.3 22:05:55 10° S 22:11:16 76° WSW 22:16:39 10° NNW
Cosmos 1818 3.7 22:07:15 10° NW 22:12:44 82° SW 22:18:09 10° SSE
Cosmos 2084 4.3 22:13:30 10° S 22:16:45 24° ESE 22:19:54 10° ENE
EO 1 Delta rocket 4.1 22:12:44 10° SSE 22:17:24 54° ENE 22:21:55 10° N
Meteor 1-21 Rocket 4.4 22:13:48 10° S 22:19:23 59° E 22:24:54 10° NNE
Helios 1B rocket 4.3 22:16:12 10° N 22:19:59 35° WNW 22:23:45 10° SW
Cosmos 614 Rocket 4.0 22:16:56 10° SSW 22:22:10 90° E 22:27:24 10° NNE
IGS 5A 4.5 22:19:32 10° SE 22:23:13 33° ENE 22:26:58 10° N
USA 234 3.3 22:19:10 10° ENE 22:25:40 62° SE 22:32:07 10° SW
ERS-1 Rocket 4.0 22:23:49 10° S 22:28:34 42° W 22:33:22 10° NNW
Tiangong 1 2.4 22:27:31 10° SSW 22:29:26 17° SSE 22:30:18 15° SE
Cosmos 1741 Rocket 4.0 22:24:33 10° SSW 22:29:51 74° ESE 22:35:10 10° NNE
SL-14 R/B 4.4 22:27:46 12° SE 22:30:46 27° E 22:34:09 10° NNE
CZ-3B DEB 4.3 22:21:18 10° WSW 22:31:49 76° NNW 22:45:16 10° ENE
Cosmos 1408 Rocket 3.7 22:29:23 10° S 22:33:35 56° E 22:37:50 10° NNE
Cosmos 1340 Rocket 3.8 22:29:46 10° SSW 22:33:40 48° WNW 22:37:37 10° N
Cosmos 2082 4.4 22:28:57 10° SW 22:34:28 58° WNW 22:40:04 10° NNE
SL-08 RB Rocket 4.0 22:30:37 10° S 22:35:09 69° WSW 22:39:46 10° NNW
SPOT 5 3.3 22:31:01 10° S 22:35:44 63° WSW 22:40:47 10° NNW
Cosmos 2016 Rocket 4.0 22:29:42 10° N 22:36:03 81° E 22:42:13 10° S
Lacrosse 5 2.0 22:32:32 10° NW 22:37:38 75° NNE 22:42:31 11° ESE
Okean 3 Rocket 4.2 22:37:25 10° SSW 22:41:52 58° WNW 22:46:19 10° N
Cosmos 2297 Rocket 3.1 22:37:34 10° SW 22:43:06 53° NW 22:48:39 10° NNE
Lacrosse 4 Rocket 3.2 22:39:32 10° WSW 22:43:32 38° NW 22:47:39 10° NNE
Cosmos 1076 Rocket 3.9 22:43:50 10° SSW 22:48:11 67° WNW 22:52:33 10° N
Cosmos 1300 2.7 22:47:46 10° N 22:51:37 70° ENE 22:54:28 17° SSE
Cosmos 1500 Rocket 4.4 22:49:23 16° SSE 22:52:24 34° E 22:56:27 10° NNE
Abrixas rocket 2.1 22:50:15 10° W 22:53:30 82° SSW 22:56:33 12° ESE
Cosmos 2221 4.2 22:49:40 10° NNW 22:53:31 30° W 22:57:21 10° SSW
Cosmos 1242 Rocket 3.9 22:50:41 10° NNW 22:54:08 36° W 22:57:34 10° SSW
Cosmos 2263 Rocket 3.5 22:55:55 15° SE 22:58:36 21° E 23:02:42 10° NE
Cosmos 371 Rocket 3.4 22:54:39 10° NNW 22:59:29 72° ENE 23:03:03 18° SSE
CARTOSAT-1 3.5 22:58:46 17° SSE 23:02:05 87° E 23:06:27 10° NNW
Cosmos 2233 Rocket 4.2 22:56:22 10° N 23:02:33 60° ENE 23:07:19 17° SSE
Cosmos 2228 Rocket 3.1 22:58:48 10° N 23:03:26 85° E 23:06:55 17° S
SPOT 1/Viking Rocket 4.2 22:58:43 10° S 23:03:41 49° W 23:08:43 10° NNW
Cosmos 1356 Rocket 4.3 23:01:40 10° SSW 23:05:47 50° WNW 23:10:00 10° N
Cosmos 1766 Rocket 3.9 23:02:52 10° SSW 23:07:09 63° WNW 23:11:29 10° N
Cosmos 1814 Rocket 4.0 23:02:26 10° NNW 23:07:51 88° ENE 23:11:47 19° SSE
Cosmos 1626 3.4 23:06:42 19° SE 23:08:18 26° E 23:11:27 10° NNE
ATLAS 5 CENTAUR R/B 1.9 23:06:14 10° SW 23:10:59 82° NW 23:16:15 10° NE
Cosmos 2058 3.7 23:08:56 20° SSE 23:11:15 37° E 23:15:09 10° NNE
Cosmos 1726 2.8 23:08:30 10° NNW 23:12:06 50° W 23:14:53 15° SSW
Cosmos 1603 3.9 23:06:30 10° NNW 23:12:09 68° WSW 23:16:21 18° SSE
ERBS 2.5 23:10:42 10° NW 23:14:06 70° NNE 23:16:20 20° ESE
CZ-4 R/B 4.2 23:09:43 10° NNE 23:14:29 48° E 23:17:40 19° SSE
Cosmos 1328 Rocket 3.7 23:10:17 10° NNW 23:14:38 69° W 23:17:51 17° S
Cosmos 1515 Rocket 3.5 23:11:25 10° N 23:15:48 90° WSW 23:18:44 20° S
Cosmos 2151 3.4 23:13:30 21° SSE 23:16:06 48° E 23:20:16 10° NNE
Landsat 7 4.4 23:12:11 14° S 23:16:11 52° W 23:20:51 10° NNW
Cosmos 1867 3.6 23:17:09 10° SW 23:22:37 87° NW 23:28:08 10° NE
H-2A R/B 2.2 23:20:47 20° S 23:23:46 72° WSW 23:28:03 10° NNW
Cosmos 1743 Rocket 3.5 23:20:26 16° S 23:23:52 88° W 23:28:13 10° N
Meteor 2-10 4.4 23:18:56 10° NNW 23:24:25 66° W 23:28:51 17° S
Cosmos 841 Rocket 3.5 23:19:59 10° NNW 23:25:18 79° ENE 23:28:45 22° SSE
Cosmos 1455 3.0 23:22:29 10° N 23:26:12 40° ENE 23:28:06 23° SE
SL-16 R/B 4.2 23:24:56 10° NW 23:28:55 20° W 23:32:53 10° SW
Cosmos 1763 Rocket 3.5 23:25:27 10° NNW 23:30:36 77° WSW 23:33:51 22° SSE
PSLV R/B 3.0 23:29:52 32° S 23:31:00 69° WSW 23:33:52 10° NNW
Terra 2.4 23:27:37 17° S 23:31:08 52° W 23:35:49 10° NNW
Cosmos 2123 Rocket 4.2 23:25:09 10° SSW 23:31:17 70° W 23:37:31 10° N
Cosmos 1943 3.2 23:25:53 10° NNW 23:31:35 90° WSW 23:35:20 22° SSE
Cosmos 1151 Rocket 3.1 23:28:56 10° NNW 23:33:20 78° W 23:36:02 23° S
Cosmos 2285 Rocket 4.3 23:28:53 10° NNW 23:35:12 63° ENE 23:39:41 20° SE
RESURS DK-1 3.2 23:31:41 10° NW 23:35:37 40° WSW 23:37:52 22° S
Cosmos 1703 3.5 23:34:34 27° SSE 23:36:30 55° E 23:40:26 10° NNE
SL-24 R/B 4.4 23:39:58 26° SSE 23:42:16 86° WSW 23:46:27 10° NNW
Meteor 1-11 4.3 23:39:35 17° S 23:44:11 89° E 23:50:03 10° NNE
DELTA 2 DEB (DPAF) 4.1 23:41:56 26° SSE 23:44:29 85° WSW 23:48:59 10° NNW
Meteor 2-12 Rocket 4.5 23:40:59 10° NNW 23:47:06 80° W 23:51:12 22° S
Spot 4 4.0 23:44:37 23° S 23:47:37 69° WSW 23:52:30 10° NNW
H-2A R/B 3.9 23:44:31 10° SW 23:48:43 23° W 23:53:00 10° NW
CZ-4C R/B 4.0 23:50:52 13° ESE 23:51:38 13° ESE 23:54:06 10° E
Cosmos 2084 4.3 23:52:17 10° WSW 23:56:03 44° NW 23:59:44 10° NNE
